Powrót do katalogu

FENGYUN 1C DEB

AktywnyPO
NORAD 37695·DEBRIS·🇨🇳 China

Wystrzelony May 10, 1999 z Taiyuan Satellite Launch Center

Loading…

Następne Przeloty (najbliższe 24 godziny)

TLE

Starzejące sięSource: Space-Track

Epoka: Sep 3, 2026, 06:43 UTC

1 37695U 99025ELL 26246.28007049  .00000728  00000-0  45378-3 0  9992
2 37695  98.1883 254.7237 0458799 272.2949  96.2706 13.65771539928620

Śledź FENGYUN 1C DEB w czasie rzeczywistym z AllMySat

Download on the App Store